time, beta470, beta532, beta650
yyyy/mm/dd HH:MM:SS.fff, counts, counts, counts
2023/06/13 15:00:11.368, 124, 151, 93
2023/06/13 15:00:12.488, 122, 156, 94
2023/06/13 15:00:13.624, 121, 153, 92
2023/06/13 15:00:14.759, 123, 154, 91
2023/06/13 15:00:15.879, 127, 157, 91
2023/06/13 15:00:17.015, 124, 158, 93
2023/06/13 15:00:18.151, 130, 161, 95
2023/06/13 15:00:19.271, 124, 157, 93
2023/06/13 15:00:20.407, 124, 151, 96
2023/06/13 15:00:21.527, 122, 154, 93
2023/06/13 15:00:22.663, 125, 150, 87
2023/06/13 15:00:23.799, 125, 154, 97
2023/06/13 15:00:24.919, 124, 157, 94
2023/06/13 15:00:26.055, 122, 154, 93
2023/06/13 15:00:27.175, 123, 156, 96
2023/06/13 15:00:28.311, 126, 154, 94
2023/06/13 15:00:29.430, 124, 155, 91
2023/06/13 15:00:30.566, 126, 158, 94
2023/06/13 15:00:31.702, 123, 157, 92
2023/06/13 15:00:32.822, 125, 160, 93
2023/06/13 15:00:33.958, 125, 157, 94
2023/06/13 15:00:35.078, 125, 158, 94
2023/06/13 15:00:36.214, 126, 172, 94
2023/06/13 15:00:37.350, 123, 153, 95
2023/06/13 15:00:38.470, 123, 152, 95
2023/06/13 15:00:39.606, 124, 157, 93
2023/06/13 15:00:40.742, 123, 157, 101
2023/06/13 15:00:41.862, 126, 161, 94
2023/06/13 15:00:42.998, 120, 167, 97
2023/06/13 15:00:44.118, 115, 154, 93
2023/06/13 15:00:45.253, 111, 153, 92
2023/06/13 15:00:46.390, 116, 155, 93
2023/06/13 15:00:47.509, 118, 145, 91
2023/06/13 15:00:48.645, 116, 155, 92
2023/06/13 15:00:49.765, 119, 149, 94
2023/06/13 15:00:50.901, 120, 143, 88
2023/06/13 15:00:52.037, 122, 146, 90
2023/06/13 15:00:53.157, 124, 152, 89
2023/06/13 15:00:54.293, 125, 151, 92
2023/06/13 15:00:55.413, 123, 153, 88
2023/06/13 15:00:56.549, 124, 150, 92
2023/06/13 15:00:57.685, 124, 148, 94
2023/06/13 15:00:58.805, 121, 146, 94
2023/06/13 15:00:59.940, 121, 145, 93
2023/06/13 15:01:01.061, 121, 152, 93
2023/06/13 15:01:02.197, 122, 150, 91
2023/06/13 15:01:03.333, 121, 153, 91
2023/06/13 15:01:04.452, 123, 157, 94
2023/06/13 15:01:05.588, 123, 169, 95
2023/06/13 15:01:06.708, 123, 166, 92
2023/06/13 15:01:07.844, 122, 161, 91
2023/06/13 15:01:08.980, 125, 155, 93
2023/06/13 15:01:10.100, 123, 153, 93
2023/06/13 15:01:11.236, 125, 152, 95
2023/06/13 15:01:12.372, 124, 157, 94
2023/06/13 15:01:13.492, 123, 158, 97
2023/06/13 15:01:14.628, 125, 166, 100
2023/06/13 15:01:15.748, 130, 153, 95
2023/06/13 15:01:16.884, 127, 152, 94
2023/06/13 15:01:18.019, 124, 162, 93
2023/06/13 15:01:19.139, 122, 156, 95
2023/06/13 15:01:20.275, 123, 157, 92
2023/06/13 15:01:21.396, 122, 158, 91
2023/06/13 15:01:22.531, 121, 154, 91
2023/06/13 15:01:23.667, 122, 149, 91
2023/06/13 15:01:24.787, 121, 151, 91
2023/06/13 15:01:25.923, 119, 154, 90
2023/06/13 15:01:27.043, 119, 152, 87
2023/06/13 15:01:28.179, 118, 152, 90
2023/06/13 15:01:29.315, 122, 147, 92
2023/06/13 15:01:30.435, 121, 152, 93
2023/06/13 15:01:31.571, 124, 151, 90
2023/06/13 15:01:32.691, 124, 146, 91
2023/06/13 15:01:33.826, 117, 150, 90
2023/06/13 15:01:34.963, 122, 147, 88
2023/06/13 15:01:36.082, 120, 152, 91
2023/06/13 15:01:37.218, 118, 152, 89
2023/06/13 15:01:38.338, 119, 150, 93
2023/06/13 15:01:39.474, 121, 151, 96
2023/06/13 15:01:40.610, 119, 153, 97
2023/06/13 15:01:41.730, 119, 153, 89
2023/06/13 15:01:42.866, 121, 149, 93
2023/06/13 15:01:43.986, 119, 157, 94
2023/06/13 15:01:45.122, 119, 148, 92
2023/06/13 15:01:46.257, 121, 153, 88
2023/06/13 15:01:47.378, 123, 155, 93
2023/06/13 15:01:48.514, 118, 162, 90
2023/06/13 15:01:49.634, 126, 156, 93
2023/06/13 15:01:50.769, 117, 155, 92
2023/06/13 15:01:51.906, 116, 175, 98
2023/06/13 15:01:53.025, 120, 151, 93
2023/06/13 15:01:54.161, 120, 151, 95
2023/06/13 15:01:55.281, 130, 154, 94
2023/06/13 15:01:56.417, 120, 152, 91
2023/06/13 15:01:57.553, 122, 155, 90
2023/06/13 15:01:58.673, 120, 156, 92
2023/06/13 15:01:59.809, 122, 152, 95
2023/06/13 15:02:00.945, 123, 155, 93
2023/06/13 15:02:02.065, 117, 156, 94
2023/06/13 15:02:03.200, 125, 155, 89
2023/06/13 15:02:04.321, 123, 153, 91
2023/06/13 15:02:05.456, 120, 153, 88
2023/06/13 15:02:06.593, 125, 152, 90
2023/06/13 15:02:07.713, 124, 152, 89
2023/06/13 15:02:08.849, 119, 151, 92
2023/06/13 15:02:09.969, 116, 157, 93
2023/06/13 15:02:11.104, 119, 154, 111
2023/06/13 15:02:12.240, 121, 152, 102
2023/06/13 15:02:13.360, 120, 154, 93
2023/06/13 15:02:14.496, 118, 159, 89
2023/06/13 15:02:15.632, 123, 149, 91
2023/06/13 15:02:16.752, 120, 150, 92
2023/06/13 15:02:17.888, 119, 149, 92
2023/06/13 15:02:19.008, 121, 152, 92
2023/06/13 15:02:20.144, 122, 149, 92
2023/06/13 15:02:21.279, 122, 150, 90
2023/06/13 15:02:22.400, 123, 155, 90
2023/06/13 15:02:23.536, 121, 149, 88
2023/06/13 15:02:24.655, 120, 152, 88
2023/06/13 15:02:25.791, 121, 148, 86
2023/06/13 15:02:26.927, 123, 147, 91
2023/06/13 15:02:28.047, 122, 147, 94
2023/06/13 15:02:29.183, 118, 153, 91
2023/06/13 15:02:30.304, 114, 150, 93
2023/06/13 15:02:31.439, 107, 137, 89
2023/06/13 15:02:32.559, 111, 134, 89
2023/06/13 15:02:33.695, 114, 147, 91
2023/06/13 15:02:34.830, 112, 144, 89
2023/06/13 15:02:35.951, 106, 144, 91
2023/06/13 15:02:37.087, 114, 136, 90
2023/06/13 15:02:38.206, 121, 148, 90
2023/06/13 15:02:39.343, 120, 156, 92
2023/06/13 15:02:40.479, 121, 155, 94
2023/06/13 15:02:41.598, 120, 163, 92
2023/06/13 15:02:42.734, 116, 156, 91
2023/06/13 15:02:43.870, 109, 150, 91
2023/06/13 15:02:44.990, 110, 142, 90
2023/06/13 15:02:46.126, 114, 149, 91
2023/06/13 15:02:47.245, 108, 149, 88
2023/06/13 15:02:48.382, 115, 133, 90
2023/06/13 15:02:49.518, 113, 132, 87
2023/06/13 15:02:50.638, 114, 132, 83
2023/06/13 15:02:51.774, 113, 134, 86
2023/06/13 15:02:52.894, 109, 135, 84
2023/06/13 15:02:54.029, 111, 137, 83
2023/06/13 15:02:55.166, 109, 139, 84
2023/06/13 15:02:56.285, 109, 135, 85
2023/06/13 15:02:57.421, 109, 133, 88
2023/06/13 15:02:58.541, 108, 135, 90
2023/06/13 15:02:59.677, 117, 132, 94
2023/06/13 15:03:00.813, 122, 137, 93
2023/06/13 15:03:01.933, 117, 142, 90
2023/06/13 15:03:03.069, 115, 142, 86
2023/06/13 15:03:04.189, 111, 144, 92
2023/06/13 15:03:05.325, 110, 137, 88
2023/06/13 15:03:06.461, 107, 140, 89
2023/06/13 15:03:07.581, 105, 141, 87
2023/06/13 15:03:08.717, 113, 144, 90
2023/06/13 15:03:09.836, 114, 159, 91
2023/06/13 15:03:10.973, 113, 158, 88
2023/06/13 15:03:12.109, 116, 147, 89
2023/06/13 15:03:13.229, 107, 134, 92
2023/06/13 15:03:14.364, 106, 132, 87
2023/06/13 15:03:15.500, 109, 132, 86
2023/06/13 15:03:16.620, 111, 138, 95
2023/06/13 15:03:17.757, 112, 146, 87
2023/06/13 15:03:18.875, 112, 158, 90
2023/06/13 15:03:20.012, 108, 152, 88
2023/06/13 15:03:21.148, 105, 142, 88
2023/06/13 15:03:22.268, 112, 141, 85
2023/06/13 15:03:23.404, 108, 142, 88
2023/06/13 15:03:24.524, 108, 135, 87
2023/06/13 15:03:25.660, 111, 131, 90
2023/06/13 15:03:26.796, 109, 133, 89
2023/06/13 15:03:27.915, 107, 143, 87
2023/06/13 15:03:29.052, 107, 139, 89
2023/06/13 15:03:30.171, 109, 138, 89
2023/06/13 15:03:31.307, 111, 141, 86
2023/06/13 15:03:32.427, 111, 140, 85
2023/06/13 15:03:33.563, 111, 142, 85
2023/06/13 15:03:34.699, 109, 138, 86
2023/06/13 15:03:35.819, 105, 133, 89
2023/06/13 15:03:36.955, 105, 128, 90
2023/06/13 15:03:38.075, 109, 140, 86
2023/06/13 15:03:39.211, 114, 144, 86
2023/06/13 15:03:40.347, 115, 142, 89
2023/06/13 15:03:41.467, 115, 137, 84
2023/06/13 15:03:42.603, 110, 139, 87
2023/06/13 15:03:43.738, 114, 138, 88
2023/06/13 15:03:44.859, 114, 140, 89
2023/06/13 15:03:45.995, 113, 143, 87
2023/06/13 15:03:47.115, 106, 136, 87
2023/06/13 15:03:48.250, 108, 126, 88
2023/06/13 15:03:49.386, 107, 128, 87
2023/06/13 15:03:50.506, 108, 131, 101
2023/06/13 15:03:51.642, 110, 130, 88
2023/06/13 15:03:52.762, 108, 133, 87
2023/06/13 15:03:53.898, 105, 135, 86
2023/06/13 15:03:55.034, 109, 136, 84
2023/06/13 15:03:56.154, 108, 137, 86
2023/06/13 15:03:57.290, 110, 135, 83
2023/06/13 15:03:58.410, 110, 139, 86
2023/06/13 15:03:59.546, 127, 142, 89
2023/06/13 15:04:00.682, 110, 137, 89
2023/06/13 15:04:01.802, 106, 138, 86
2023/06/13 15:04:02.937, 106, 131, 86
2023/06/13 15:04:04.057, 109, 136, 88
2023/06/13 15:04:05.193, 113, 130, 85
2023/06/13 15:04:06.329, 107, 126, 83
2023/06/13 15:04:07.449, 103, 128, 82
2023/06/13 15:04:08.585, 108, 136, 84
2023/06/13 15:04:09.721, 108, 140, 87
2023/06/13 15:04:10.841, 103, 138, 86
2023/06/13 15:04:11.976, 105, 136, 87
2023/06/13 15:04:13.097, 106, 134, 91
2023/06/13 15:04:14.233, 104, 136, 83
2023/06/13 15:04:15.369, 115, 135, 87
2023/06/13 15:04:16.488, 109, 140, 83
2023/06/13 15:04:17.624, 110, 137, 82
2023/06/13 15:04:18.744, 107, 141, 84
2023/06/13 15:04:19.881, 105, 139, 84
2023/06/13 15:04:21.016, 102, 132, 82
2023/06/13 15:04:22.136, 108, 133, 87
2023/06/13 15:04:23.272, 109, 136, 85
2023/06/13 15:04:24.392, 109, 136, 82
2023/06/13 15:04:25.528, 111, 136, 82
2023/06/13 15:04:26.664, 107, 134, 81
2023/06/13 15:04:27.784, 109, 135, 82
2023/06/13 15:04:28.920, 106, 132, 82
2023/06/13 15:04:30.039, 101, 129, 80
2023/06/13 15:04:31.176, 104, 126, 80
2023/06/13 15:04:32.311, 106, 135, 84
2023/06/13 15:04:33.432, 110, 134, 82
2023/06/13 15:04:34.567, 108, 132, 83
2023/06/13 15:04:35.688, 109, 134, 80
2023/06/13 15:04:36.823, 105, 134, 82
2023/06/13 15:04:37.959, 105, 133, 78
2023/06/13 15:04:39.079, 105, 133, 79
2023/06/13 15:04:40.215, 108, 136, 81
2023/06/13 15:04:41.335, 111, 132, 82
2023/06/13 15:04:42.471, 110, 134, 83
2023/06/13 15:04:43.607, 111, 130, 79
2023/06/13 15:04:44.727, 113, 131, 84
2023/06/13 15:04:45.863, 110, 136, 81
2023/06/13 15:04:46.983, 112, 133, 82
2023/06/13 15:04:48.119, 106, 136, 83
2023/06/13 15:04:49.255, 105, 133, 85
2023/06/13 15:04:50.375, 110, 134, 81
2023/06/13 15:04:51.511, 106, 134, 78
2023/06/13 15:04:52.630, 103, 135, 95
2023/06/13 15:04:53.766, 109, 132, 98
2023/06/13 15:04:54.902, 109, 138, 81
2023/06/13 15:04:56.022, 112, 134, 81
2023/06/13 15:04:57.158, 111, 130, 78
2023/06/13 15:04:58.278, 104, 131, 80
2023/06/13 15:04:59.414, 103, 129, 84
2023/06/13 15:05:00.550, 107, 128, 78
2023/06/13 15:05:01.670, 106, 127, 76
2023/06/13 15:05:02.806, 113, 128, 79
2023/06/13 15:05:03.926, 126, 130, 81
2023/06/13 15:05:05.061, 109, 136, 82
2023/06/13 15:05:06.198, 107, 134, 85
2023/06/13 15:05:07.318, 101, 130, 77
2023/06/13 15:05:08.453, 102, 129, 79
2023/06/13 15:05:09.589, 103, 130, 81
2023/06/13 15:05:10.709, 107, 134, 81
2023/06/13 15:05:11.845, 104, 132, 80
2023/06/13 15:05:12.965, 105, 131, 79
2023/06/13 15:05:14.101, 105, 130, 80
2023/06/13 15:05:15.237, 108, 135, 80
2023/06/13 15:05:16.356, 108, 130, 84
2023/06/13 15:05:17.493, 107, 127, 78
2023/06/13 15:05:18.613, 105, 129, 82
2023/06/13 15:05:19.749, 105, 131, 79
2023/06/13 15:05:20.885, 102, 131, 79
2023/06/13 15:05:22.005, 104, 124, 77
2023/06/13 15:05:23.140, 104, 123, 79
2023/06/13 15:05:24.261, 101, 120, 81
2023/06/13 15:05:25.396, 98, 117, 79
2023/06/13 15:05:26.516, 99, 119, 79
2023/06/13 15:05:27.652, 101, 122, 77
2023/06/13 15:05:28.788, 104, 128, 83
2023/06/13 15:05:29.908, 108, 127, 82
2023/06/13 15:05:31.044, 111, 126, 83
2023/06/13 15:05:32.164, 113, 131, 83
2023/06/13 15:05:33.300, 111, 144, 81
2023/06/13 15:05:34.436, 107, 130, 83
2023/06/13 15:05:35.556, 105, 129, 78
2023/06/13 15:05:36.692, 105, 124, 80
2023/06/13 15:05:37.811, 104, 126, 79
2023/06/13 15:05:38.948, 103, 125, 74
2023/06/13 15:05:40.084, 100, 129, 81
2023/06/13 15:05:41.203, 100, 129, 81
2023/06/13 15:05:42.339, 100, 121, 78
2023/06/13 15:05:43.459, 103, 124, 81
2023/06/13 15:05:44.595, 107, 121, 81
2023/06/13 15:05:45.731, 108, 124, 79
2023/06/13 15:05:46.851, 112, 125, 79
2023/06/13 15:05:47.987, 109, 124, 77
2023/06/13 15:05:49.107, 108, 120, 77
2023/06/13 15:05:50.242, 101, 123, 74
2023/06/13 15:05:51.379, 101, 122, 78
2023/06/13 15:05:52.499, 103, 121, 75
2023/06/13 15:05:53.635, 100, 119, 77
2023/06/13 15:05:54.770, 104, 124, 75
2023/06/13 15:05:55.891, 102, 121, 76
2023/06/13 15:05:57.026, 95, 123, 75
2023/06/13 15:05:58.147, 99, 122, 76
2023/06/13 15:05:59.282, 100, 116, 77
2023/06/13 15:06:00.402, 102, 117, 75
2023/06/13 15:06:01.538, 102, 121, 77
2023/06/13 15:06:02.674, 99, 122, 78
2023/06/13 15:06:03.794, 100, 120, 76
2023/06/13 15:06:04.930, 99, 124, 75
2023/06/13 15:06:06.050, 101, 120, 78
2023/06/13 15:06:07.186, 99, 118, 77
2023/06/13 15:06:08.321, 98, 119, 77
2023/06/13 15:06:09.442, 97, 124, 73
2023/06/13 15:06:10.578, 98, 123, 77
2023/06/13 15:06:11.698, 99, 121, 79
2023/06/13 15:06:12.834, 97, 120, 79
2023/06/13 15:06:13.954, 99, 120, 78
2023/06/13 15:06:15.089, 99, 121, 78
2023/06/13 15:06:16.209, 100, 120, 81
2023/06/13 15:06:17.345, 98, 118, 79
2023/06/13 15:06:18.481, 97, 112, 78
2023/06/13 15:06:19.601, 97, 114, 75
2023/06/13 15:06:20.737, 101, 112, 76
2023/06/13 15:06:21.856, 100, 118, 77
2023/06/13 15:06:22.993, 99, 117, 73
2023/06/13 15:06:24.113, 101, 123, 75
2023/06/13 15:06:25.249, 99, 125, 78
2023/06/13 15:06:26.385, 97, 123, 74
2023/06/13 15:06:27.505, 98, 122, 79
2023/06/13 15:06:28.641, 98, 125, 75
2023/06/13 15:06:29.761, 102, 119, 87
2023/06/13 15:06:30.897, 101, 122, 102
2023/06/13 15:06:32.016, 100, 123, 88
2023/06/13 15:06:33.152, 100, 122, 81
2023/06/13 15:06:34.288, 102, 121, 78
2023/06/13 15:06:35.408, 101, 122, 84
2023/06/13 15:06:36.544, 103, 122, 75
2023/06/13 15:06:37.664, 101, 122, 74
2023/06/13 15:06:38.800, 103, 119, 73
2023/06/13 15:06:39.936, 100, 121, 75
2023/06/13 15:06:41.056, 100, 119, 76
2023/06/13 15:06:42.192, 104, 120, 72
2023/06/13 15:06:43.312, 101, 120, 72
2023/06/13 15:06:44.448, 104, 123, 77
2023/06/13 15:06:45.584, 101, 122, 75
2023/06/13 15:06:46.704, 102, 119, 101
2023/06/13 15:06:47.839, 102, 117, 75
2023/06/13 15:06:48.975, 100, 129, 76
2023/06/13 15:06:50.095, 102, 121, 74
2023/06/13 15:06:51.230, 103, 117, 76
2023/06/13 15:06:52.351, 100, 113, 74
2023/06/13 15:06:53.487, 98, 119, 75
2023/06/13 15:06:54.623, 100, 114, 73
2023/06/13 15:06:55.743, 101, 113, 72
2023/06/13 15:06:56.879, 99, 114, 74
2023/06/13 15:06:57.999, 101, 119, 76
2023/06/13 15:06:59.134, 99, 119, 72
2023/06/13 15:07:00.254, 99, 116, 75
2023/06/13 15:07:01.391, 99, 115, 75
2023/06/13 15:07:02.526, 97, 110, 73
2023/06/13 15:07:03.646, 99, 114, 75
2023/06/13 15:07:04.782, 98, 123, 74
2023/06/13 15:07:05.902, 102, 127, 75
2023/06/13 15:07:07.038, 96, 115, 71
2023/06/13 15:07:08.158, 102, 115, 76
2023/06/13 15:07:09.294, 98, 114, 73
2023/06/13 15:07:10.430, 98, 113, 74
2023/06/13 15:07:11.550, 103, 114, 75
2023/06/13 15:07:12.685, 103, 113, 75
2023/06/13 15:07:13.806, 100, 116, 73
2023/06/13 15:07:14.941, 99, 113, 74
2023/06/13 15:07:16.062, 95, 114, 73
2023/06/13 15:07:17.198, 94, 115, 73
2023/06/13 15:07:18.334, 96, 113, 74
2023/06/13 15:07:19.454, 100, 111, 72
2023/06/13 15:07:20.590, 95, 110, 71
2023/06/13 15:07:21.709, 96, 113, 72
2023/06/13 15:07:22.845, 98, 112, 70
2023/06/13 15:07:23.965, 95, 114, 71
2023/06/13 15:07:25.101, 96, 110, 70
2023/06/13 15:07:26.237, 97, 110, 71
2023/06/13 15:07:27.357, 98, 116, 74
2023/06/13 15:07:28.492, 95, 117, 72
2023/06/13 15:07:29.613, 98, 112, 75
2023/06/13 15:07:30.749, 98, 112, 71
2023/06/13 15:07:31.869, 97, 110, 73
2023/06/13 15:07:33.004, 97, 114, 71
2023/06/13 15:07:34.125, 94, 117, 74
2023/06/13 15:07:35.260, 94, 112, 74
2023/06/13 15:07:36.381, 92, 111, 71
2023/06/13 15:07:37.515, 96, 111, 71
2023/06/13 15:07:38.652, 97, 113, 72
2023/06/13 15:07:39.772, 98, 113, 71
2023/06/13 15:07:40.908, 96, 111, 72
2023/06/13 15:07:42.028, 96, 111, 77
2023/06/13 15:07:43.164, 93, 111, 71
2023/06/13 15:07:44.284, 95, 111, 76
2023/06/13 15:07:45.420, 97, 109, 72
2023/06/13 15:07:46.540, 95, 111, 71
2023/06/13 15:07:47.676, 96, 111, 69
2023/06/13 15:07:48.812, 98, 115, 74
2023/06/13 15:07:49.932, 95, 120, 73
2023/06/13 15:07:51.067, 93, 118, 72
2023/06/13 15:07:52.187, 93, 117, 74
2023/06/13 15:07:53.323, 96, 121, 75
2023/06/13 15:07:54.443, 93, 112, 87
2023/06/13 15:07:55.579, 97, 115, 77
2023/06/13 15:07:56.699, 97, 113, 73
2023/06/13 15:07:57.835, 99, 110, 69
2023/06/13 15:07:58.971, 94, 111, 74
2023/06/13 15:08:00.091, 97, 111, 72
2023/06/13 15:08:01.227, 98, 110, 70
2023/06/13 15:08:02.347, 97, 111, 75
2023/06/13 15:08:03.483, 91, 111, 68
2023/06/13 15:08:04.603, 94, 111, 70
2023/06/13 15:08:05.739, 95, 111, 69
2023/06/13 15:08:06.859, 97, 110, 72
2023/06/13 15:08:07.995, 93, 106, 70
2023/06/13 15:08:09.130, 94, 108, 72
2023/06/13 15:08:10.250, 92, 113, 70
2023/06/13 15:08:11.386, 94, 110, 72
2023/06/13 15:08:12.506, 92, 106, 72
2023/06/13 15:08:13.642, 94, 108, 68
2023/06/13 15:08:14.762, 95, 109, 71
2023/06/13 15:08:15.898, 97, 107, 73
2023/06/13 15:08:17.018, 97, 109, 68
2023/06/13 15:08:18.154, 96, 107, 72
2023/06/13 15:08:19.290, 96, 109, 73
2023/06/13 15:08:20.410, 94, 110, 69
2023/06/13 15:08:21.546, 95, 111, 72
2023/06/13 15:08:22.665, 94, 108, 68
2023/06/13 15:08:23.801, 97, 108, 68
2023/06/13 15:08:24.921, 94, 107, 70
2023/06/13 15:08:26.057, 96, 107, 71
2023/06/13 15:08:27.177, 91, 107, 70
2023/06/13 15:08:28.313, 93, 106, 70
2023/06/13 15:08:29.433, 92, 105, 73
2023/06/13 15:08:30.569, 94, 105, 68
2023/06/13 15:08:31.705, 93, 106, 70
2023/06/13 15:08:32.825, 95, 115, 69
2023/06/13 15:08:33.961, 101, 108, 72
2023/06/13 15:08:35.081, 98, 107, 69
2023/06/13 15:08:36.216, 94, 105, 70
2023/06/13 15:08:37.337, 95, 113, 67
2023/06/13 15:08:38.472, 95, 115, 69
2023/06/13 15:08:39.593, 94, 108, 70
2023/06/13 15:08:40.728, 92, 106, 73
2023/06/13 15:08:41.864, 96, 109, 68
2023/06/13 15:08:42.984, 95, 110, 67
2023/06/13 15:08:44.121, 90, 110, 69
2023/06/13 15:08:45.240, 96, 119, 69
2023/06/13 15:08:46.376, 94, 109, 70
2023/06/13 15:08:47.496, 94, 104, 72
2023/06/13 15:08:48.632, 94, 106, 69
2023/06/13 15:08:49.752, 93, 107, 68
2023/06/13 15:08:50.888, 96, 107, 69
2023/06/13 15:08:52.024, 94, 107, 68
2023/06/13 15:08:53.144, 95, 112, 67
2023/06/13 15:08:54.280, 91, 107, 71
2023/06/13 15:08:55.400, 99, 106, 82
2023/06/13 15:08:56.536, 92, 103, 76
2023/06/13 15:08:57.656, 88, 101, 70
2023/06/13 15:08:58.791, 95, 108, 71
2023/06/13 15:08:59.911, 93, 109, 68
2023/06/13 15:09:01.047, 94, 107, 68
2023/06/13 15:09:02.183, 90, 102, 70
2023/06/13 15:09:03.303, 90, 107, 77
2023/06/13 15:09:04.439, 92, 103, 74
2023/06/13 15:09:05.559, 92, 102, 76
2023/06/13 15:09:06.695, 92, 103, 70
2023/06/13 15:09:07.814, 93, 106, 66
2023/06/13 15:09:08.951, 90, 104, 69
2023/06/13 15:09:10.071, 92, 105, 66
2023/06/13 15:09:11.207, 92, 105, 71
2023/06/13 15:09:12.343, 89, 103, 65
2023/06/13 15:09:13.462, 93, 106, 70
2023/06/13 15:09:14.598, 94, 104, 70
2023/06/13 15:09:15.718, 93, 110, 71
2023/06/13 15:09:16.854, 94, 108, 71
2023/06/13 15:09:17.974, 92, 107, 70
2023/06/13 15:09:19.110, 91, 106, 68
2023/06/13 15:09:20.230, 91, 106, 69
2023/06/13 15:09:21.366, 93, 106, 67
2023/06/13 15:09:22.502, 96, 114, 68
2023/06/13 15:09:23.622, 94, 120, 70
2023/06/13 15:09:24.758, 91, 124, 67
2023/06/13 15:09:25.878, 91, 122, 68
2023/06/13 15:09:27.013, 94, 113, 68
2023/06/13 15:09:28.134, 90, 106, 73
2023/06/13 15:09:29.270, 92, 107, 68
2023/06/13 15:09:30.390, 93, 107, 67
2023/06/13 15:09:31.525, 93, 101, 70
2023/06/13 15:09:32.645, 90, 101, 67
2023/06/13 15:09:33.781, 92, 100, 69
2023/06/13 15:09:34.917, 91, 101, 65
2023/06/13 15:09:36.037, 92, 105, 71
2023/06/13 15:09:37.173, 90, 102, 66
2023/06/13 15:09:38.292, 92, 101, 82
2023/06/13 15:09:39.429, 91, 103, 67
2023/06/13 15:09:40.549, 91, 102, 68
2023/06/13 15:09:41.685, 91, 103, 67
2023/06/13 15:09:42.805, 91, 104, 66
2023/06/13 15:09:43.941, 89, 103, 66
2023/06/13 15:09:45.077, 94, 102, 69
2023/06/13 15:09:46.197, 93, 103, 65
2023/06/13 15:09:47.333, 89, 102, 67
2023/06/13 15:09:48.452, 92, 104, 68
2023/06/13 15:09:49.588, 93, 102, 68
2023/06/13 15:09:50.709, 90, 104, 68
2023/06/13 15:09:51.844, 88, 104, 70
2023/06/13 15:09:52.964, 89, 103, 68
2023/06/13 15:09:54.100, 90, 101, 66
2023/06/13 15:09:55.235, 93, 101, 69
2023/06/13 15:09:56.356, 88, 102, 68
2023/06/13 15:09:57.492, 91, 102, 64
2023/06/13 15:09:58.612, 89, 100, 67
2023/06/13 15:09:59.747, 88, 99, 69
2023/06/13 15:10:00.868, 92, 102, 67
2023/06/13 15:10:02.004, 90, 99, 67
2023/06/13 15:10:03.123, 92, 100, 65
2023/06/13 15:10:04.259, 92, 105, 66
2023/06/13 15:10:05.379, 90, 105, 67
2023/06/13 15:10:06.515, 90, 101, 69
2023/06/13 15:10:07.651, 91, 102, 65
2023/06/13 15:10:08.771, 91, 101, 68
2023/06/13 15:10:09.907, 90, 100, 66
2023/06/13 15:10:11.027, 93, 100, 66
2023/06/13 15:10:12.163, 88, 103, 69
2023/06/13 15:10:13.283, 90, 105, 68
2023/06/13 15:10:14.419, 91, 101, 67
2023/06/13 15:10:15.539, 90, 104, 65
2023/06/13 15:10:16.675, 88, 106, 64
2023/06/13 15:10:17.811, 90, 101, 67
2023/06/13 15:10:18.931, 93, 99, 67
2023/06/13 15:10:20.066, 89, 102, 68
2023/06/13 15:10:21.186, 92, 102, 65
2023/06/13 15:10:22.322, 91, 103, 64
2023/06/13 15:10:23.442, 92, 98, 68
2023/06/13 15:10:24.578, 89, 97, 67
2023/06/13 15:10:25.698, 89, 97, 66
2023/06/13 15:10:26.834, 91, 96, 64
2023/06/13 15:10:27.954, 90, 100, 69
2023/06/13 15:10:29.090, 87, 99, 67
2023/06/13 15:10:30.210, 91, 101, 65
2023/06/13 15:10:31.346, 88, 100, 68
2023/06/13 15:10:32.465, 88, 99, 67
2023/06/13 15:10:33.602, 89, 99, 67
2023/06/13 15:10:34.721, 88, 104, 68
2023/06/13 15:10:35.857, 90, 102, 68
2023/06/13 15:10:36.977, 90, 100, 67
2023/06/13 15:10:38.113, 94, 101, 65
2023/06/13 15:10:39.249, 94, 101, 65
2023/06/13 15:10:40.369, 91, 100, 66
2023/06/13 15:10:41.505, 92, 106, 68
2023/06/13 15:10:42.625, 91, 99, 67
2023/06/13 15:10:43.761, 91, 100, 66
2023/06/13 15:10:44.881, 94, 99, 67
2023/06/13 15:10:46.017, 91, 101, 68
2023/06/13 15:10:47.137, 91, 102, 68
2023/06/13 15:10:48.273, 94, 98, 63
2023/06/13 15:10:49.393, 95, 103, 70
2023/06/13 15:10:50.529, 91, 102, 69
2023/06/13 15:10:51.649, 90, 102, 67
2023/06/13 15:10:52.785, 86, 101, 65
2023/06/13 15:10:53.920, 91, 102, 68
2023/06/13 15:10:55.040, 89, 102, 67
2023/06/13 15:10:56.176, 91, 101, 65
2023/06/13 15:10:57.296, 90, 101, 67
2023/06/13 15:10:58.432, 91, 107, 62
2023/06/13 15:10:59.552, 89, 102, 67
2023/06/13 15:11:00.687, 90, 100, 65
2023/06/13 15:11:01.807, 91, 102, 69
2023/06/13 15:11:02.944, 90, 100, 66
2023/06/13 15:11:04.079, 92, 99, 68
2023/06/13 15:11:05.200, 90, 101, 65
2023/06/13 15:11:06.336, 90, 100, 67
2023/06/13 15:11:07.456, 91, 100, 65
2023/06/13 15:11:08.591, 90, 101, 67
2023/06/13 15:11:09.711, 90, 99, 64
2023/06/13 15:11:10.847, 89, 103, 66
2023/06/13 15:11:11.967, 90, 103, 67
2023/06/13 15:11:13.103, 90, 107, 67
2023/06/13 15:11:14.223, 92, 100, 64
2023/06/13 15:11:15.359, 93, 100, 66
2023/06/13 15:11:16.495, 90, 98, 66
2023/06/13 15:11:17.615, 86, 97, 68
2023/06/13 15:11:18.751, 88, 97, 68
2023/06/13 15:11:19.871, 96, 100, 68
2023/06/13 15:11:21.007, 88, 99, 66
2023/06/13 15:11:22.127, 88, 101, 64
2023/06/13 15:11:23.262, 88, 102, 65
2023/06/13 15:11:24.383, 88, 99, 64
2023/06/13 15:11:25.518, 88, 100, 64
2023/06/13 15:11:26.638, 90, 103, 64
2023/06/13 15:11:27.774, 89, 102, 65
2023/06/13 15:11:28.894, 87, 98, 66
2023/06/13 15:11:30.030, 88, 98, 67
2023/06/13 15:11:31.150, 88, 100, 65
2023/06/13 15:11:32.285, 88, 97, 63
2023/06/13 15:11:33.406, 90, 97, 67
2023/06/13 15:11:34.542, 87, 100, 67
2023/06/13 15:11:35.661, 89, 99, 64
2023/06/13 15:11:36.798, 86, 97, 64
2023/06/13 15:11:37.918, 85, 94, 65
2023/06/13 15:11:39.053, 86, 96, 64
2023/06/13 15:11:40.173, 89, 97, 65
2023/06/13 15:11:41.309, 92, 99, 65
2023/06/13 15:11:42.429, 90, 98, 64
2023/06/13 15:11:43.565, 85, 98, 65
2023/06/13 15:11:44.685, 87, 100, 67
2023/06/13 15:11:45.821, 86, 100, 65
2023/06/13 15:11:46.957, 88, 99, 64
2023/06/13 15:11:48.077, 90, 98, 66
2023/06/13 15:11:49.213, 87, 99, 66
2023/06/13 15:11:50.333, 87, 97, 65
2023/06/13 15:11:51.469, 88, 98, 63